Location: Luna
(33.8188°N, 108.9564°W)
Time: 05:45:27
(UTC+00:00)

BlueWalker 3 - Visible Passes

Search period start: 02 December 2022 00:00
Search period end: 12 December 2022 00:00
Orbit: 500 x 519 km, 53.2° (Epoch: 01 December)

Date Brightness Start Highest point End Pass type
(mag) Time Alt. Az. Time Alt. Az. Time Alt. Az.
08 Dec 4.3 01:42:49 10° N 01:43:20 12° N 01:43:20 12° N visible
09 Dec 3.8 01:24:18 10° N 01:26:07 16° NNE 01:26:07 16° NNE visible
10 Dec 3.5 01:05:48 10° NNW 01:08:31 18° NNE 01:09:05 17° NE visible
10 Dec 4.9 02:43:37 10° NW 02:43:57 12° NW 02:43:57 12° NW visible
11 Dec 3.5 00:47:17 10° NNW 00:50:07 19° NNE 00:52:19 13° ENE visible
11 Dec 3.8 02:25:13 10° NW 02:27:13 27° WNW 02:27:13 27° WNW visible
